Date String (YYYY-MM-DD hh:mm:ss) UTC,Instrument flags,absolute air pressure of the measurement (hPa),sample flow rate (lpm),inlet stack bypass flow (lpm),air temperature of the measurement (°C),ambient temperature measured by the external sensor (°C),aerosol sample conditioner tube jacket temperature (°C),OPC LED temperature (°C),internal box temperature (°C),relative humidity of the measurement (%),span deviation,mass concentration of particles derived from Lorenz-Mie calculation of OPC scattering (μg/m³),mass concentration of particles derived from Lorenz-Mie calculation of OPC scattering (μg/m³),mass concentration of particles derived from Lorenz-Mie calculation of OPC scattering (μg/m³)
DateTimeUTC,F1_M11,P_M11,Q1_M11,Q2_M11,T1_M11,T2_M11,T3_M11,T4_M11,T5_M11,U1_M11,ZSPAN_M11,X2_M11,X0_M11,X1_M11
2023-06-13 15:00:00,SystemResetWarning,0830.4,5.00,000.00,029.2,027.5,000.0,037.7,030.6,29.2,0001.2,0009.00,0013.74,0008.39
2023-06-13 15:01:00,SystemResetWarning,0830.4,5.00,000.00,029.2,027.5,000.0,037.7,030.6,29.4,0001.5,0009.03,0013.90,0008.40
2023-06-13 15:02:00,SystemResetWarning,0830.4,5.01,000.00,029.2,027.5,000.0,037.7,030.6,29.6,0001.7,0008.98,0013.72,0008.40
2023-06-13 15:03:00,SystemResetWarning,0830.4,5.00,000.00,029.2,027.5,000.0,037.7,030.6,29.9,0001.7,0008.97,0012.87,0008.40
2023-06-13 15:04:00,SystemResetWarning,0830.4,4.99,000.00,029.2,027.5,000.0,037.7,030.7,29.7,0001.6,0008.97,0012.79,0008.42
2023-06-13 15:05:00,SystemResetWarning,0830.4,5.00,000.00,029.2,027.6,000.0,037.7,030.7,29.6,0001.5,0008.95,0012.71,0008.39
2023-06-13 15:06:00,SystemResetWarning,0830.4,5.01,000.00,029.2,027.6,000.0,037.7,030.7,29.4,0001.3,0008.90,0012.46,0008.37
2023-06-13 15:07:00,SystemResetWarning,0830.4,5.01,000.00,029.2,027.6,000.0,037.7,030.7,29.5,0001.0,0008.88,0012.44,0008.36
2023-06-13 15:08:00,SystemResetWarning,0830.4,5.01,000.00,029.2,027.6,000.0,037.7,030.7,29.4,0000.9,0008.85,0012.40,0008.35
2023-06-13 15:09:00,SystemResetWarning,0830.3,4.99,000.00,029.2,027.6,000.0,037.7,030.7,29.4,0000.9,0008.86,0012.44,0008.33
2023-06-13 15:10:00,SystemResetWarning,0830.3,4.99,000.00,029.2,027.6,000.0,037.7,030.7,29.3,0000.9,0008.80,0012.35,0008.30
2023-06-13 15:11:00,SystemResetWarning,0830.3,4.99,000.00,029.2,027.6,000.0,037.7,030.7,29.4,0000.9,0008.73,0012.24,0008.24
2023-06-13 15:12:00,SystemResetWarning,0830.3,5.02,000.00,029.2,027.6,000.0,037.7,030.7,29.2,0000.9,0008.60,0011.90,0008.13
2023-06-13 15:13:00,SystemResetWarning,0830.3,5.01,000.00,029.2,027.6,000.0,037.7,030.7,28.9,0000.8,0008.44,0011.67,0007.99
2023-06-13 15:14:00,SystemResetWarning,0830.3,5.00,000.00,029.2,027.6,000.0,037.7,030.7,28.9,0000.8,0008.30,0011.51,0007.85
2023-06-13 15:15:00,SystemResetWarning,0830.4,4.99,000.00,029.2,027.6,000.0,037.7,030.7,29.0,0000.8,0008.17,0011.23,0007.71
2023-06-13 15:16:00,SystemResetWarning,0830.3,5.00,000.00,029.2,027.5,000.0,037.7,030.7,29.3,0000.6,0008.02,0010.97,0007.59
2023-06-13 15:17:00,SystemResetWarning,0830.3,5.00,000.00,029.2,027.5,000.0,037.7,030.7,29.3,0000.5,0007.90,0010.89,0007.47
2023-06-13 15:18:00,SystemResetWarning,0830.3,5.00,000.00,029.2,027.5,000.0,037.7,030.7,29.6,0000.6,0007.81,0010.84,0007.36
2023-06-13 15:19:00,SystemResetWarning,0830.3,5.00,000.00,029.2,027.5,000.0,037.7,030.7,29.9,0000.5,0007.73,0010.78,0007.27
2023-06-13 15:20:00,SystemResetWarning,0830.3,5.00,000.00,029.2,027.5,000.0,037.7,030.7,30.3,0000.6,0007.69,0010.74,0007.23
2023-06-13 15:21:00,SystemResetWarning,0830.3,4.99,000.00,029.2,027.5,000.0,037.7,030.7,29.9,0000.4,0007.65,0010.70,0007.20
2023-06-13 15:22:00,SystemResetWarning,0830.3,5.00,000.00,029.2,027.5,000.0,037.7,030.7,29.8,0000.0,0007.66,0010.70,0007.21
2023-06-13 15:23:00,SystemResetWarning,0830.3,5.00,000.00,029.2,027.5,000.0,037.7,030.7,30.0,0000.0,0007.72,0010.70,0007.29
2023-06-13 15:24:00,SystemResetWarning,0830.3,5.00,000.00,029.2,027.5,000.0,037.7,030.7,30.0,-000.1,0007.86,0010.88,0007.42
2023-06-13 15:25:00,SystemResetWarning,0830.3,5.01,000.00,029.2,027.5,000.0,037.7,030.6,30.0,0000.2,0008.04,0011.14,0007.59
2023-06-13 15:26:00,SystemResetWarning,0830.2,5.00,000.00,029.2,027.5,000.0,037.7,030.6,29.9,0000.3,0008.17,0011.23,0007.75
2023-06-13 15:27:00,SystemResetWarning,0830.3,5.01,000.00,029.1,027.5,000.0,037.7,030.6,30.0,0000.3,0008.34,0011.43,0007.92
2023-06-13 15:28:00,SystemResetWarning,0830.3,4.99,000.00,029.1,027.5,000.0,037.7,030.6,29.9,0000.2,0008.56,0011.67,0008.14
2023-06-13 15:29:00,SystemResetWarning,0830.2,5.01,000.00,029.1,027.5,000.0,037.7,030.6,29.9,0000.0,0008.70,0011.77,0008.31
2023-06-13 15:30:00,SystemResetWarning,0830.3,5.00,000.00,029.1,027.5,000.0,037.7,030.6,30.0,0000.0,0008.87,0012.03,0008.46
2023-06-13 15:31:00,SystemResetWarning,0830.2,5.01,000.00,029.1,027.5,000.0,037.7,030.6,30.0,0000.0,0009.04,0012.30,0008.60
2023-06-13 15:32:00,SystemResetWarning,0830.3,5.01,000.00,029.1,027.5,000.0,037.7,030.6,30.1,0000.4,0009.22,0012.62,0008.74
2023-06-13 15:33:00,SystemResetWarning,0830.3,5.00,000.00,029.1,027.5,000.0,037.7,030.6,30.1,0000.6,0009.32,0012.73,0008.83
2023-06-13 15:34:00,SystemResetWarning,0830.3,5.01,000.00,029.1,027.5,000.0,037.7,030.6,29.9,0000.7,0009.44,0012.94,0008.92
2023-06-13 15:35:00,SystemResetWarning,0830.3,5.00,000.00,029.1,027.5,000.0,037.7,030.6,29.9,0000.7,0009.53,0013.13,0008.99
2023-06-13 15:36:00,SystemResetWarning,0830.3,4.99,000.00,029.1,027.4,000.0,037.7,030.6,30.0,0000.7,0009.55,0013.17,0009.03
2023-06-13 15:37:00,SystemResetWarning,0830.3,5.00,000.00,029.1,027.4,000.0,037.7,030.6,29.9,0000.7,0009.59,0013.35,0009.04
2023-06-13 15:38:00,SystemResetWarning,0830.3,4.99,000.00,029.1,027.4,000.0,037.7,030.6,30.0,0000.7,0009.62,0013.42,0009.04
2023-06-13 15:39:00,SystemResetWarning,0830.3,5.00,000.00,029.1,027.4,000.0,037.7,030.6,30.2,0000.8,0009.63,0013.59,0009.02
2023-06-13 15:40:00,SystemResetWarning,0830.2,5.00,000.00,029.1,027.4,000.0,037.7,030.6,30.5,0000.9,0009.65,0014.04,0009.01
2023-06-13 15:41:00,SystemResetWarning,0830.2,4.99,000.00,029.1,027.4,000.0,037.7,030.6,30.3,0000.9,0009.66,0014.72,0009.01
2023-06-13 15:42:00,SystemResetWarning,0830.3,5.01,000.00,029.1,027.4,000.0,037.7,030.6,29.9,0001.1,0009.58,0014.61,0008.96
2023-06-13 15:43:00,SystemResetWarning,0830.3,5.00,000.00,029.1,027.4,000.0,037.7,030.5,29.7,0001.0,0009.50,0014.46,0008.90
2023-06-13 15:44:00,SystemResetWarning,0830.2,5.00,000.00,029.1,027.4,000.0,037.7,030.6,29.7,0000.8,0009.48,0014.49,0008.87
2023-06-13 15:45:00,SystemResetWarning,0830.2,5.00,000.00,029.1,027.4,000.0,037.7,030.6,29.8,0000.7,0009.48,0014.49,0008.84
2023-06-13 15:46:00,SystemResetWarning,0830.2,5.01,000.00,029.1,027.4,000.0,037.7,030.6,29.9,0000.9,0009.45,0014.42,0008.81
2023-06-13 15:47:00,SystemResetWarning,0830.3,5.00,000.00,029.1,027.4,000.0,037.7,030.5,30.0,0000.6,0009.46,0014.53,0008.79
2023-06-13 15:48:00,SystemResetWarning,0830.2,5.00,000.00,029.1,027.4,000.0,037.7,030.5,30.1,0000.5,0009.45,0014.40,0008.79
2023-06-13 15:49:00,SystemResetWarning,0830.3,5.00,000.00,029.1,027.3,000.0,037.7,030.5,30.0,0000.7,0009.46,0014.44,0008.81
2023-06-13 15:50:00,SystemResetWarning,0830.3,5.00,000.00,029.1,027.4,000.0,037.7,030.5,30.1,0000.9,0009.45,0014.53,0008.80
2023-06-13 15:51:00,SystemResetWarning,0830.3,5.00,000.00,029.1,027.4,000.0,037.6,030.5,30.1,0001.0,0009.41,0014.09,0008.80
2023-06-13 15:52:00,SystemResetWarning,0830.3,5.00,000.00,029.1,027.4,000.0,037.6,030.5,29.7,0001.0,0009.43,0013.26,0008.81
2023-06-13 15:53:00,SystemResetWarning,0830.3,4.99,000.00,029.1,027.4,000.0,037.6,030.5,29.5,0000.7,0009.46,0013.26,0008.82
2023-06-13 15:54:00,SystemResetWarning,0830.4,5.00,000.00,029.1,027.4,000.0,037.6,030.5,29.5,0001.0,0009.52,0013.52,0008.84
2023-06-13 15:55:00,SystemResetWarning,0830.4,5.00,000.00,029.1,027.4,000.0,037.6,030.5,29.4,0001.2,0009.56,0013.47,0008.88
2023-06-13 15:56:00,SystemResetWarning,0830.4,5.00,000.00,029.1,027.4,000.0,037.6,030.5,29.4,0001.4,0009.57,0013.44,0008.89
2023-06-13 15:57:00,SystemResetWarning,0830.4,5.01,000.00,029.1,027.4,000.0,037.6,030.5,29.3,0001.2,0009.58,0013.44,0008.91
2023-06-13 15:58:00,SystemResetWarning,0830.4,5.00,000.00,029.0,027.4,000.0,037.6,030.5,29.5,0001.6,0009.56,0013.32,0008.91
2023-06-13 15:59:00,SystemResetWarning,0830.4,5.00,000.00,029.0,027.4,000.0,037.6,030.5,29.4,0001.9,0009.52,0013.29,0008.88
